Precipitable_Water
0.60 0.59 0.58 0.57 0.57 0.55 0.54 0.53 0.52 0.51 0.50 0.49 0.54 0.67 0.78 0.84 0.82 0.80 0.62 0.88 1.10 1.54 1.79 1.95 2.06 1.88 1.81 1.62 1.83 1.64 1.17 1.02 0.89 0.87 0.85 0.94 0.95 1.20 1.30 1.20 1.28 1.31 1.25 1.38 1.61
0.60 0.59 0.58 0.57 0.56 0.56 0.54 0.53 0.53 0.51 0.51 0.48 0.50 0.62 0.75 0.85 0.75 0.67 0.88 1.08 1.17 1.62 1.80 1.56 1.58 1.61 1.41 1.47 1.60 1.38 1.13 1.00 1.08 1.17 0.97 0.92 1.01 1.01 1.08 1.09 1.13 1.19 1.40 1.49 1.59
0.61 0.60 0.59 0.58 0.57 0.55 0.54 0.53 0.53 0.52 0.51 0.48 0.48 0.58 0.70 0.82 0.69 0.72 0.96 1.00 1.04 1.59 2.05 1.84 1.72 1.40 1.14 1.34 1.38 1.26 0.94 1.04 1.12 1.15 1.06 0.88 1.19 1.15 1.05 0.98 1.06 1.07 1.22 1.43 1.44
0.61 0.60 0.60 0.59 0.58 0.57 0.55 0.53 0.52 0.52 0.50 0.49 0.48 0.49 0.63 0.69 0.57 0.91 1.01 0.88 1.16 1.67 1.77 1.84 1.57 1.26 1.13 1.14 1.33 1.07 1.13 1.09 1.13 1.19 1.13 0.96 1.09 0.99 1.04 1.09 1.22 1.10 1.28 1.36 1.39
0.61 0.60 0.59 0.58 0.57 0.57 0.56 0.55 0.53 0.52 0.51 0.50 0.48 0.47 0.50 0.51 0.58 1.00 0.88 0.87 1.20 1.44 1.43 1.43 1.36 1.29 1.07 1.16 1.26 1.19 1.15 1.20 1.14 1.15 1.13 1.19 0.98 0.90 0.99 1.19 1.23 1.21 1.29 1.35 1.39
0.61 0.59 0.59 0.58 0.57 0.56 0.56 0.55 0.53 0.53 0.52 0.52 0.51 0.49 0.30 0.36 0.85 0.79 0.74 0.85 1.04 1.18 1.35 1.37 1.21 1.09 1.01 0.99 1.11 1.21 1.17 1.16 1.07 1.10 1.07 0.98 0.94 0.92 0.98 1.12 1.10 1.10 1.30 1.39 1.40
0.64 0.62 0.61 0.59 0.58 0.57 0.55 0.54 0.53 0.53 0.55 0.57 0.56 0.43 0.26 0.47 0.84 0.73 0.77 0.86 1.03 1.13 1.21 1.27 1.12 1.01 0.95 0.92 1.14 1.20 1.09 1.17 1.15 1.21 0.99 1.16 0.95 0.88 0.99 1.00 1.05 1.02 1.12 1.32 1.42
0.70 0.69 0.67 0.64 0.61 0.57 0.54 0.52 0.52 0.57 0.57 0.60 0.58 0.41 0.16 0.47 0.80 0.72 0.70 0.88 1.15 1.30 1.25 1.20 1.08 0.97 0.96 1.01 1.01 0.92 1.04 0.94 1.13 1.10 1.06 1.02 0.83 0.96 1.03 0.95 0.97 1.08 1.05 1.14 1.27
0.74 0.73 0.72 0.68 0.64 0.61 0.57 0.52 0.51 0.57 0.57 0.57 0.39 0.35 0.25 0.54 0.49 0.68 0.71 0.79 1.05 1.15 1.12 1.15 0.97 0.83 0.87 0.76 0.71 0.79 0.68 0.99 1.01 1.13 1.00 0.76 0.92 1.01 1.04 0.94 0.87 0.98 1.04 1.04 1.06
0.75 0.72 0.69 0.66 0.63 0.62 0.60 0.52 0.55 0.56 0.58 0.52 0.58 0.33 0.30 0.31 0.40 0.47 0.71 0.88 0.89 0.94 0.95 0.97 0.85 0.74 0.74 0.61 0.47 0.59 0.69 0.88 0.91 0.97 1.08 0.75 0.86 1.04 1.05 0.97 0.93 0.94 0.93 0.96 1.00
0.71 0.66 0.62 0.60 0.58 0.57 0.52 0.49 0.52 0.50 0.40 0.22 0.35 0.22 0.31 0.39 0.40 0.51 0.62 0.76 0.81 0.72 0.68 0.77 0.65 0.65 0.60 0.57 0.61 0.64 0.78 0.78 0.88 1.03 0.91 0.87 1.05 1.10 1.18 1.06 1.00 1.01 0.96 0.96 0.97
0.71 0.65 0.59 0.57 0.57 0.55 0.51 0.55 0.56 0.56 0.35 0.36 0.45 0.39 0.35 0.35 0.33 0.52 0.66 0.55 0.57 0.47 0.65 0.62 0.60 0.73 0.70 0.56 0.56 0.55 0.70 0.67 0.85 0.91 0.92 1.07 0.96 1.11 1.13 1.16 1.15 1.13 1.02 0.99 1.01
0.71 0.64 0.58 0.56 0.54 0.48 0.41 0.54 0.62 0.57 0.37 0.32 0.39 0.33 0.37 0.36 0.40 0.48 0.56 0.51 0.41 0.38 0.51 0.53 0.65 0.77 0.63 0.56 0.54 0.52 0.40 0.41 0.50 0.75 1.00 1.00 1.03 1.19 1.21 1.34 1.42 1.34 1.14 1.10 1.05
0.67 0.61 0.53 0.55 0.54 0.52 0.47 0.57 0.52 0.55 0.28 0.34 0.32 0.36 0.35 0.32 0.27 0.42 0.49 0.41 0.32 0.30 0.39 0.53 0.61 0.72 0.61 0.59 0.51 0.38 0.35 0.32 0.43 0.52 0.53 0.76 0.55 0.74 0.93 1.09 1.25 1.30 1.18 1.11 1.15
0.65 0.62 0.55 0.67 0.60 0.60 0.63 0.55 0.47 0.49 0.34 0.41 0.36 0.34 0.31 0.28 0.32 0.31 0.45 0.36 0.31 0.33 0.33 0.37 0.52 0.60 0.63 0.50 0.54 0.44 0.42 0.33 0.32 0.35 0.50 0.57 0.58 0.65 0.79 0.92 1.13 1.36 1.28 1.19 1.18
0.60 0.60 0.55 0.52 0.59 0.56 0.57 0.48 0.57 0.50 0.31 0.32 0.34 0.27 0.27 0.31 0.33 0.37 0.35 0.31 0.37 0.34 0.37 0.41 0.47 0.54 0.49 0.46 0.48 0.41 0.36 0.35 0.35 0.45 0.42 0.61 0.59 0.60 0.69 0.80 1.00 1.22 1.45 1.41 1.23
0.62 0.55 0.52 0.70 0.51 0.55 0.59 0.65 0.50 0.38 0.49 0.33 0.32 0.28 0.28 0.30 0.32 0.33 0.27 0.21 0.22 0.25 0.31 0.33 0.34 0.38 0.38 0.33 0.37 0.31 0.32 0.28 0.29 0.36 0.42 0.67 0.59 0.67 0.87 0.97 0.94 1.00 1.36 1.46 1.32
0.72 0.73 0.63 0.51 0.65 0.79 0.83 0.66 0.46 0.45 0.42 0.36 0.30 0.28 0.24 0.26 0.32 0.30 0.23 0.19 0.20 0.29 0.30 0.28 0.26 0.30 0.36 0.26 0.23 0.31 0.34 0.31 0.23 0.31 0.47 0.72 0.59 0.66 0.96 1.19 1.06 0.93 1.19 1.42 1.42
0.75 0.72 0.79 0.87 0.77 0.84 0.75 0.56 0.50 0.44 0.41 0.27 0.26 0.26 0.27 0.30 0.33 0.30 0.25 0.23 0.26 0.31 0.28 0.26 0.24 0.29 0.27 0.27 0.27 0.28 0.29 0.35 0.31 0.52 0.52 0.63 0.67 0.70 0.90 1.16 0.98 0.95 1.12 1.32 1.39
0.68 0.69 0.69 0.97 0.94 0.87 0.69 0.47 0.38 0.50 0.55 0.45 0.29 0.31 0.27 0.27 0.31 0.27 0.29 0.36 0.45 0.40 0.39 0.32 0.28 0.27 0.25 0.23 0.22 0.24 0.29 0.24 0.28 0.32 0.33 0.49 0.48 0.52 0.85 1.19 1.35 1.41 1.48 1.37 1.40
0.77 0.67 0.75 0.89 0.95 0.80 0.58 0.51 0.46 0.51 0.61 0.58 0.54 0.50 0.44 0.30 0.30 0.31 0.34 0.44 0.46 0.44 0.42 0.35 0.34 0.28 0.28 0.20 0.12 0.15 0.16 0.25 0.25 0.32 0.39 0.36 0.46 0.85 0.96 1.12 1.29 1.21 0.87 0.88 1.21
0.77 0.66 0.80 0.99 0.70 0.74 0.55 0.50 0.61 0.55 0.67 0.70 0.80 0.69 0.49 0.40 0.46 0.46 0.50 0.53 0.53 0.47 0.35 0.42 0.31 0.26 0.29 0.34 0.28 0.26 0.21 0.29 0.29 0.40 0.51 0.53 0.56 1.00 1.13 1.43 1.17 1.07 1.11 0.85 1.10
0.69 0.69 0.75 0.86 0.63 0.59 0.51 0.48 0.53 0.54 0.56 0.61 0.64 0.63 0.59 0.50 0.54 0.59 0.61 0.65 0.57 0.52 0.40 0.39 0.29 0.27 0.33 0.38 0.44 0.36 0.32 0.34 0.33 0.45 0.46 0.51 0.60 1.00 0.91 0.92 1.08 1.10 1.25 1.36 1.47
0.86 0.68 0.66 0.65 0.70 0.64 0.57 0.55 0.55 0.58 0.51 0.55 0.57 0.58 0.53 0.49 0.52 0.52 0.59 0.60 0.55 0.41 0.41 0.42 0.35 0.32 0.37 0.43 0.47 0.40 0.35 0.33 0.34 0.32 0.46 0.60 0.65 0.79 0.83 0.96 1.17 1.13 1.18 1.57 1.67
0.94 0.76 0.81 0.61 0.62 0.62 0.58 0.58 0.58 0.55 0.59 0.60 0.55 0.47 0.45 0.48 0.54 0.57 0.60 0.59 0.58 0.47 0.36 0.42 0.37 0.43 0.49 0.49 0.48 0.51 0.44 0.38 0.36 0.39 0.43 0.69 0.69 0.75 0.87 0.96 1.05 1.06 0.99 0.99 1.04
0.65 0.68 0.84 0.75 0.60 0.56 0.67 0.61 0.54 0.54 0.56 0.50 0.49 0.49 0.42 0.52 0.57 0.55 0.58 0.58 0.59 0.60 0.49 0.47 0.40 0.47 0.43 0.51 0.55 0.46 0.52 0.53 0.49 0.50 0.70 0.84 0.82 1.08 1.14 1.06 0.93 0.94 0.83 0.86 1.02
0.66 0.73 0.83 0.67 0.66 0.62 0.64 0.63 0.59 0.53 0.53 0.51 0.45 0.43 0.44 0.50 0.56 0.60 0.65 0.62 0.56 0.54 0.47 0.39 0.41 0.41 0.37 0.50 0.50 0.42 0.55 0.54 0.55 0.59 0.82 0.69 0.87 1.02 0.96 0.87 0.86 0.86 0.82 0.75 0.87
Wind_Speed
12 12 11 11 11 10 10 10 10 9 8 7 6 6 6 6 6 4 5 6 6 8 8 8 5 8 7 11 6 8 8 5 5 8 6 9 10 11 11 10 5 5 15 17 21
13 13 12 12 11 11 10 10 10 9 9 8 7 6 5 5 4 3 3 6 8 9 11 11 13 14 7 10 9 10 6 4 6 7 8 9 10 10 9 11 13 14 17 19 19
14 14 14 13 13 12 11 11 10 9 9 8 7 6 5 4 3 2 3 3 5 8 9 12 14 22 19 12 10 10 7 7 5 6 6 9 10 5 11 13 13 15 19 21 20
15 15 15 14 14 13 13 12 11 11 10 9 8 7 5 3 2 1 3 3 5 7 5 4 4 7 10 10 6 9 7 7 6 5 5 8 8 6 10 12 14 17 20 21 21
17 17 16 16 15 15 14 14 13 12 11 10 9 7 6 6 5 1 4 4 5 6 3 1 1 3 7 3 5 2 7 5 2 4 6 9 9 12 13 14 15 18 20 19 18
18 18 18 17 17 16 16 15 14 14 13 11 10 8 7 8 6 4 6 6 6 5 2 1 6 5 4 5 6 8 8 9 7 5 7 10 9 9 12 13 14 15 19 17 16
20 19 19 18 18 18 17 16 15 15 14 12 10 9 9 10 7 7 8 8 7 7 3 5 5 5 4 5 7 2 8 7 7 5 5 5 9 9 12 12 14 14 14 15 16
20 20 19 19 18 18 17 16 16 15 14 12 11 10 10 12 10 7 10 10 8 8 7 3 4 3 5 5 3 2 2 4 6 7 5 4 6 10 12 13 14 14 13 13 13
21 20 20 19 19 18 17 16 16 14 13 12 11 11 11 11 12 10 11 11 10 9 6 5 1 1 5 6 5 2 2 4 5 5 4 4 7 7 11 13 14 14 13 13 14
20 20 20 19 18 17 16 15 13 12 12 12 14 11 13 13 12 13 12 12 10 8 7 7 4 2 2 5 2 2 3 7 4 3 7 2 4 6 10 14 13 14 14 12 13
18 17 16 14 13 12 11 9 9 10 13 14 12 13 8 14 11 12 13 12 11 9 9 8 4 3 5 1 2 4 9 10 6 4 11 4 4 6 8 15 14 14 15 13 13
15 13 12 11 11 10 9 9 10 10 12 18 17 17 13 12 12 12 12 12 11 10 9 7 6 9 5 3 4 7 8 9 7 7 8 8 10 8 10 14 15 14 14 14 14
12 11 10 9 9 8 9 9 10 9 8 11 14 13 11 10 12 13 13 12 11 12 11 10 6 2 8 8 8 11 5 3 8 4 9 8 7 4 6 8 13 13 13 14 15
10 9 7 6 5 4 6 7 6 6 6 8 11 13 14 10 13 14 13 12 11 13 13 10 10 8 10 8 5 5 3 5 3 3 2 5 7 1 5 4 10 15 15 13 15
8 6 4 3 3 3 3 3 3 2 3 10 9 7 13 12 9 14 14 12 12 10 7 12 8 16 12 9 7 6 3 4 5 4 2 6 7 6 2 3 4 8 12 14 13
8 5 3 2 1 2 2 1 4 0 3 7 6 9 13 13 9 12 10 12 10 10 11 13 12 7 9 8 8 4 4 6 8 5 4 4 6 6 7 8 9 10 9 13 14
8 7 5 5 5 7 6 5 3 1 4 8 6 10 14 11 11 10 10 11 9 6 5 6 9 7 7 11 8 6 4 6 7 6 4 3 7 8 5 7 14 14 12 11 14
7 6 6 7 8 8 7 7 5 5 1 4 6 12 12 12 11 8 9 10 11 10 9 7 13 12 9 8 11 9 7 3 9 3 2 4 6 10 8 5 7 15 13 13 14
7 6 7 6 6 6 6 2 3 5 7 6 10 10 10 11 5 8 10 9 9 9 7 3 7 8 6 7 7 10 6 9 2 4 3 4 6 11 3 4 10 12 13 12 14
7 6 5 7 8 6 5 3 4 7 6 3 6 9 9 10 5 9 10 5 6 6 3 5 3 5 3 5 9 9 8 6 3 2 3 5 7 5 4 4 2 9 11 5 8
6 7 8 8 6 5 4 5 5 4 7 6 1 3 2 7 8 6 8 4 4 1 3 5 3 4 2 3 7 5 4 5 4 2 2 4 5 5 6 4 6 8 9 2 8
3 3 7 6 4 3 3 5 6 6 7 2 2 6 7 5 5 5 5 3 3 4 4 6 7 6 8 9 6 8 10 7 2 4 2 2 5 6 6 5 6 4 3 1 10
2 2 5 1 4 11 2 1 1 5 4 5 5 8 2 3 5 5 3 6 4 3 4 5 5 3 7 4 6 4 7 5 4 2 4 3 8 8 6 7 3 1 3 3 5
1 1 3 2 4 8 5 3 4 4 2 2 1 2 2 0 3 1 4 2 3 4 5 6 7 2 3 7 11 6 8 10 5 5 5 3 9 11 12 5 5 4 4 3 4
1 2 1 3 5 3 5 3 7 5 5 5 2 4 1 2 2 2 3 4 3 4 5 6 7 5 6 4 6 5 5 5 3 6 5 13 9 12 4 2 3 6 7 6 6
3 3 3 4 5 3 5 2 4 6 4 5 3 4 3 1 2 3 4 2 0 3 4 6 8 6 6 4 7 8 4 7 6 1 6 8 6 9 7 4 6 8 9 9 7
6 3 4 5 7 2 3 4 5 4 2 4 4 5 4 6 8 9 9 9 8 6 5 7 8 6 9 7 8 3 3 3 4 4 7 6 9 8 7 8 8 9 10 9 7
Wind_Direction
326 327 329 330 332 334 337 341 345 346 347 345 342 342 347 352 353 26 35 46 79 100 96 98 91 71 57 51 95 71 112 85 105 97 107 90 87 96 96 103 110 99 136 139 144
318 317 318 319 320 321 324 327 331 334 336 334 328 325 330 340 347 343 42 84 92 106 104 86 75 57 53 58 72 73 77 87 125 109 108 91 112 96 94 100 100 113 131 140 143
312 312 311 310 310 310 311 313 316 320 323 323 319 310 309 323 330 335 130 112 103 130 119 99 98 59 62 68 81 72 81 89 115 132 105 100 103 95 101 102 113 128 139 142 145
307 307 306 306 305 303 301 301 302 304 307 309 308 297 289 268 8 5 159 141 121 134 140 143 122 57 28 49 83 66 71 105 94 104 118 104 113 96 117 121 122 127 138 140 145
303 302 301 301 300 298 296 294 292 293 294 296 295 287 259 240 250 254 182 162 150 149 151 198 240 317 355 357 90 104 87 119 101 139 132 114 98 92 107 119 121 134 137 143 147
300 299 297 296 295 294 292 289 286 285 284 283 281 272 250 242 230 222 195 184 180 172 165 284 332 340 350 349 189 158 90 87 85 103 110 106 116 99 113 123 127 136 150 148 148
298 296 295 293 291 290 288 286 282 279 276 272 268 259 248 230 231 225 207 204 199 194 219 312 6 19 359 29 43 360 113 95 88 84 79 119 118 120 125 129 136 136 146 157 164
295 294 292 291 290 289 285 282 279 274 268 262 255 252 248 233 228 225 213 208 208 218 243 293 341 21 19 348 33 129 230 114 89 75 65 115 118 139 138 136 145 146 148 152 157
294 293 291 289 287 285 284 279 275 269 260 252 245 247 244 231 231 229 215 212 217 217 232 244 282 329 12 56 54 138 133 178 82 81 90 67 172 160 149 145 153 156 158 156 159
295 293 290 287 285 283 281 276 268 267 253 243 244 245 244 240 232 226 215 213 216 220 226 229 234 346 5 63 66 23 14 155 127 32 43 45 172 177 177 160 157 158 158 161 166
299 297 293 288 284 282 278 267 268 267 250 235 233 234 244 228 218 214 211 210 218 223 223 233 211 194 234 276 312 309 275 230 144 137 42 264 257 267 220 182 167 159 161 163 168
303 299 295 290 285 280 267 263 273 272 265 236 240 239 254 209 209 208 202 206 207 218 222 228 230 229 252 273 313 320 321 97 144 158 58 88 249 256 239 195 183 174 166 168 172
308 302 297 293 290 276 251 263 282 270 255 239 222 225 212 210 210 211 200 207 211 209 219 223 208 283 259 268 285 304 202 161 171 206 91 112 41 307 203 171 199 207 183 174 177
319 310 302 300 298 285 269 277 267 261 253 230 217 219 216 216 225 211 198 199 208 216 218 227 221 206 243 250 278 16 353 312 213 195 236 284 352 300 242 231 185 213 195 186 184
339 333 322 298 313 309 310 277 258 199 263 173 204 209 198 194 200 204 196 205 216 222 211 225 230 238 233 255 281 285 333 351 303 294 296 329 358 332 335 263 251 219 200 198 194
3 6 14 38 356 342 25 111 140 50 233 168 167 188 182 198 209 173 191 203 215 242 251 241 247 252 238 245 254 287 280 303 307 287 298 305 337 348 320 266 258 228 220 214 201
25 38 63 75 77 73 85 100 69 57 135 163 178 182 185 194 191 179 195 200 203 187 219 247 241 245 231 242 263 247 261 311 350 11 279 235 351 313 320 275 264 251 229 222 204
32 49 74 94 91 85 77 73 89 47 55 101 159 168 176 187 189 185 184 201 212 225 251 264 273 234 232 219 232 245 254 236 325 311 188 322 321 320 337 316 231 224 221 220 206
38 67 85 87 105 93 68 71 70 64 50 118 137 158 181 190 182 180 185 187 201 203 223 291 348 175 213 217 216 248 250 273 8 13 43 317 305 318 358 123 182 204 203 211 202
55 73 88 100 96 90 62 57 75 36 67 68 138 166 170 172 183 176 185 190 165 185 209 250 301 216 228 244 253 235 254 298 301 163 329 304 312 311 20 320 10 129 131 131 182
63 80 101 98 86 63 49 42 60 38 55 91 47 119 143 174 179 199 186 169 201 220 241 245 230 277 201 254 217 233 252 226 267 286 224 269 295 339 320 5 106 101 86 233 206
49 81 128 90 56 15 18 31 30 28 73 160 72 153 103 174 123 137 145 180 234 253 243 236 231 287 257 267 237 241 234 239 260 299 319 245 277 322 351 69 59 51 78 193 186
7 179 169 75 356 358 33 75 1 10 12 39 107 128 240 124 125 136 189 210 245 246 234 249 223 285 317 281 320 247 263 280 265 242 251 274 270 280 310 352 40 19 321 301 269
85 326 220 300 314 17 16 53 36 24 54 316 321 294 245 333 208 203 178 211 242 248 220 198 201 236 270 220 242 284 298 258 250 268 286 210 188 202 287 310 342 10 2 339 13
323 343 329 287 341 341 1 347 25 19 16 29 31 13 315 270 265 324 292 236 235 228 220 202 224 290 298 303 232 257 320 320 264 270 259 189 200 229 237 270 335 346 328 315 307
298 294 261 286 323 302 351 357 1 357 334 345 359 343 306 250 298 295 280 284 115 304 244 235 233 290 279 197 260 244 201 241 302 342 150 179 232 235 226 248 307 318 323 319 292
349 283 243 275 308 319 348 332 326 336 300 347 319 292 317 285 276 264 259 257 261 263 283 252 247 271 250 289 296 202 266 342 342 26 178 216 226 240 273 300 300 311 314 311 301